Notices

What's New in latest Release from April 7th, 2021:

- Updated Glossary, including Speed of Maximum Gust, and Total Hourly Precipitation

- Updated national and regional climate services offices contacts and prices information

- Addition of station inventory lists for 1981-2010, 1971-2000, and 1961-1990 Normals.

If you haven't already, please take our survey and provide feedback about our website: https://eccc.sondage-survey.ca/f/LanguageSelection.aspx?s=442ca660-fcf1-47c0-95a9-59707d6fd709

Hourly Data Report for January 25, 2021

STE-ANNE-DE-BELLEVUE 1
QUEBEC
Current Station Operator: ECCC - MSC

45°25'38.000" N
73°55'45.000" W
39.00 m
702FHL8
71377
WVQ

Download Data

Hourly Data (January 2021)
Hourly Data Report for January 25, 2021
TIME
LST
Temp Definition
°C
Dew Point Definition
°C
Rel Hum Definition
%
Precip. Amount Definition
mm

Wind Dir Definition
10's deg

Wind Spd Definition
km/h
Visibility Definition
km
Stn Press Definition
kPa
Hmdx Definition


Wind Chill Definition


Weather Definition


00:00 -14.6 -18.2 74 0.0 25 17   101.56   -23 LegendNANA
01:00 -15.2 -18.5 76 0.0 25 13   101.57   -23 LegendNANA
02:00 -15.7 -18.8 77 0.0 25 9   101.60   -22 LegendNANA
03:00 -16.1 -19.4 76 0.0 28 8   101.60   -22 LegendNANA
04:00 -15.8 -19.2 75 0.0 25 8   101.62   -21 LegendNANA
05:00 -15.5 -19.0 74 0.0 22 6   101.62   -20 LegendNANA
06:00 -15.0 -18.6 74 0.0 26 11   101.62   -22 LegendNANA
07:00 -16.0 -19.7 73 0.0 26 5   101.66   -20 LegendNANA
08:00 -15.1 -18.4 76 0.0 26 13   101.67   -22 LegendNANA
09:00 -14.1 -18.2 71 0.0 26 9   101.66   -20 LegendNANA
10:00 -12.1 -17.3 65 0.0 25 16   101.64   -20 LegendNANA
11:00 -11.4 -17.0 63 0.0 25 15   101.66   -18 LegendNANA
12:00 -9.8 -16.0 60 0.0 24 12   101.62   -16 LegendNANA
13:00 -8.0 -14.5 60 0.0 24 12   101.60   -13 LegendNANA
14:00 -7.0 -13.6 59 0.0 23 13   101.51   -13 LegendNANA
15:00 -6.9 -13.0 62 0.0 24 7   101.55   -10 LegendNANA
16:00 -7.7 -12.8 67 0.0 24 8   101.51   -12 LegendNANA
17:00 -8.0 -12.6 70 0.0 25 5   101.49   -11 LegendNANA
18:00 -9.6 -13.3 74 0.0 25 7   101.53   -14 LegendNANA
19:00 -7.1 -11.1 73 0.0 28 12   101.58   -12 LegendNANA
20:00 -7.4 -11.1 75 0.0 0 1   101.57   -8 LegendNANA
21:00 -6.7 -10.0 77 0.0 32 3   101.54   -8 LegendNANA
22:00 -6.8 -9.9 79 0.0 6 4   101.52   -9 LegendNANA
23:00 -6.7 -9.6 80 0.0 18 2   101.50   -8 LegendNANA

Notes on Data Quality.

Legend

  • E = Estimated
  • M = Missing
  • NA = Not Available*
  • [empty] = Indicates an unobserved value
Date modified: